This is the latest recevied weather packets stored in our database for station/object IZ5RIE-13. If no packets are shown the sender has not sent any weather packets the latest 10 day(s).
| Time | Temp. | Humidity | Pressure | Rain* | Wind** | Luminosity | Snow |
|---|---|---|---|---|---|---|---|
| 1788209934 | 26.11° C | 100% | 1018.1 hPa | - | - | - | - |
| 1788209033 | 26.11° C | 100% | 1018.1 hPa | - | - | - | - |
| 1788208133 | 26.11° C | 100% | 1017.9 hPa | - | - | - | - |
| 1788207233 | 26.67° C | 100% | 1017.8 hPa | - | - | - | - |
| 1788206336 | 26.67° C | 100% | 1017.8 hPa | - | - | - | - |
| 1788205436 | 26.67° C | 100% | 1017.7 hPa | - | - | - | - |
| 1788204536 | 26.67° C | 100% | 1017.4 hPa | - | - | - | - |
| 1788203636 | 26.67° C | 100% | 1017.3 hPa | - | - | - | - |
| 1788202735 | 26.67° C | 100% | 1017.4 hPa | - | - | - | - |
| 1788201835 | 27.22° C | 100% | 1017.3 hPa | - | - | - | - |
| 1788200935 | 27.22° C | 100% | 1017.3 hPa | - | - | - | - |
| 1788200035 | 27.78° C | 100% | 1017.1 hPa | - | - | - | - |
| 1788199135 | 28.33° C | 100% | 1017 hPa | - | - | - | - |
| 1788198235 | 28.89° C | 100% | 1017.1 hPa | - | - | - | - |
| 1788197335 | 30.56° C | 100% | 1017.1 hPa | - | - | - | - |
| 1788196434 | 32.78° C | 100% | 1017 hPa | - | - | - | - |
| 1788195534 | 35.56° C | 100% | 1017.1 hPa | - | - | - | - |
| 1788194634 | 36.11° C | 97% | 1017.1 hPa | - | - | - | - |
| 1788193734 | 36.11° C | 91% | 1017.1 hPa | - | - | - | - |
| 1788192834 | 37.22° C | 80% | 1017.2 hPa | - | - | - | - |
| 1788191934 | 36.67° C | 84% | 1017.2 hPa | - | - | - | - |
| 1788191034 | 36.11° C | 93% | 1017.2 hPa | - | - | - | - |
| 1788190133 | 37.22° C | 76% | 1017.2 hPa | - | - | - | - |
| 1788189233 | 36.67° C | 80% | 1017.2 hPa | - | - | - | - |
| 1788188333 | 37.22° C | 81% | 1017.2 hPa | - | - | - | - |
* Rain since midnight (hover to see other rain measurements)
** Current wind speed in m/s (hover to see current wind gust speed)